Location: *
(46.8167°N, 7.6167°E)
Time: 12:25:15
(UTC+00:00)

Daily predictions for brighter satellites

Satellite Brightness Start Highest point End
(mag) Time Altitude Azimuth Time Altitude Azimuth Time Altitude Azimuth
SL-8 Rocket 4.3 16:48:48 10° SSE 16:54:44 46° E 17:00:40 10° NNE
Cosmos 44 3.2 16:50:20 10° SSW 16:54:50 61° ESE 16:59:12 10° NE
Cosmos 2082 4.1 16:50:01 10° S 16:55:19 45° ESE 17:00:41 10° NE
Starlink AS 4.3 16:52:53 10° NW 16:55:20 23° N 16:57:46 10° ENE
Starlink BA 4.3 16:53:06 10° NW 16:55:33 23° N 16:58:00 10° ENE
Starlink AU 4.3 16:53:18 10° NW 16:55:46 23° N 16:58:13 10° ENE
Starlink AT 4.3 16:53:33 10° NW 16:56:00 23° N 16:58:27 10° ENE
Starlink BB 4.3 16:53:47 10° NW 16:56:13 23° N 16:58:40 10° ENE
Cosmos 2219 3.5 16:50:43 10° SSW 16:56:19 75° WNW 17:02:01 10° NNE
Starlink BC 4.3 16:54:00 10° NW 16:56:26 23° N 16:58:53 10° ENE
Starlink BK 4.3 16:54:12 10° NW 16:56:40 23° N 16:59:07 10° ENE
Starlink AY 4.2 16:54:27 10° NW 16:56:54 23° N 16:59:21 10° ENE
Starlink AW 4.2 16:54:39 10° NW 16:57:06 23° N 16:59:33 10° ENE
Starlink BJ 4.2 16:54:54 10° NW 16:57:21 23° N 16:59:48 10° ENE
Starlink AV 4.2 16:55:09 10° NW 16:57:36 23° N 17:00:03 10° ENE
Starlink BD 4.2 16:55:22 10° NW 16:57:49 23° N 17:00:16 10° ENE
Starlink BE 4.2 16:55:32 10° NW 16:58:02 24° N 17:00:31 10° ENE
Starlink BM 4.2 16:55:49 10° NW 16:58:16 23° N 17:00:43 10° ENE
Starlink AX 4.2 16:56:03 10° NW 16:58:31 23° N 17:00:58 10° ENE
Starlink BH 4.2 16:56:15 10° NW 16:58:42 23° N 17:01:09 10° ENE
Starlink AZ 4.2 16:56:28 10° NW 16:58:56 23° N 17:01:23 10° ENE
YAOGAN 1 3.7 16:55:45 10° ESE 16:59:09 23° ENE 17:02:33 10° NNE
Starlink BG 4.2 16:56:42 10° NW 16:59:10 23° N 17:01:37 10° ENE
Starlink BF 4.2 16:56:55 10° NW 16:59:22 23° N 17:01:50 10° ENE
Starlink BL 4.2 16:57:07 10° NW 16:59:36 24° N 17:02:05 10° ENE
Starlink AH 4.2 16:57:22 10° NW 16:59:49 23° N 17:02:16 10° ENE
Starlink AC 4.2 16:57:37 10° NW 17:00:04 23° N 17:02:31 10° ENE
Cosmos 2297 Rocket 2.2 16:54:33 10° SSW 17:00:13 86° ESE 17:05:55 10° NNE
Starlink X 4.2 16:57:50 10° NW 17:00:17 23° N 17:02:45 10° ENE
Starlink AE 4.2 16:57:59 10° NW 17:00:28 24° N 17:02:59 10° ENE
Starlink AQ 4.2 16:58:06 10° NW 17:00:35 24° N 17:03:03 10° ENE
Starlink Z 4.2 16:58:16 10° NW 17:00:43 23° N 17:03:10 10° ENE
USA 234 3.3 16:54:17 10° ESE 17:00:49 78° NNE 17:07:22 10° NW
Starlink AK 4.2 16:58:30 10° NW 17:00:58 23° N 17:03:25 10° ENE
Starlink D 4.3 16:58:23 10° WNW 17:01:12 26° N 17:04:01 10° ENE
Starlink AL 4.2 16:58:45 10° NW 17:01:12 23° N 17:03:40 10° ENE
Starlink AD 4.2 16:58:58 10° NW 17:01:26 23° N 17:03:54 10° ENE
Starlink Y 4.2 16:59:25 10° NW 17:01:53 23° N 17:04:21 10° ENE
Starlink AG 4.2 16:59:38 10° NW 17:02:07 24° N 17:04:33 10° ENE
Starlink W 4.2 16:59:48 10° NW 17:02:18 24° N 17:04:47 10° ENE
Starlink AJ 4.2 17:00:05 10° NW 17:02:33 24° N 17:05:00 10° ENE
Starlink AM 4.2 17:00:33 10° NW 17:03:01 24° N 17:05:28 10° ENE
Starlink AP 4.2 17:00:46 10° NW 17:03:14 24° N 17:05:41 10° ENE
Starlink S 4.3 17:00:36 10° NW 17:03:25 26° N 17:06:15 10° ENE
Starlink AA 4.2 17:01:01 10° NW 17:03:28 24° N 17:05:56 10° ENE
Starlink AF 4.2 17:01:12 10° NW 17:03:40 24° N 17:06:08 10° ENE
Starlink AB 4.2 17:01:27 10° NW 17:03:55 24° N 17:06:22 10° ENE
Starlink AN 4.2 17:01:40 10° NW 17:04:08 24° N 17:06:35 10° ENE
Starlink C 4.3 17:02:45 10° NW 17:05:35 27° N 17:08:20 10° ENE
Cosmos 2263 Rocket 3.9 17:05:36 10° ESE 17:07:20 11° E 17:09:03 10° ENE
Starlink E 4.3 17:04:58 10° NW 17:07:49 27° N 17:10:28 11° ENE
YAOGAN 6 2.8 17:05:58 10° SSE 17:09:31 50° ENE 17:13:03 10° N
Starlink J 4.3 17:07:12 10° NW 17:10:03 27° N 17:12:37 12° ENE
H-2A R/B 3.7 17:06:31 10° S 17:10:18 55° W 17:14:10 10° NNW
ADEOS Rocket 4.5 17:05:27 10° NE 17:10:28 21° E 17:15:44 10° SE
Starlink V 4.3 17:09:25 10° NW 17:12:15 27° N 17:14:43 12° ENE
ERBS 3.8 17:10:34 10° W 17:13:29 27° NNW 17:16:24 10° NE
Cosmos 2227 Rocket 2.3 17:07:58 10° SSW 17:13:38 84° WNW 17:19:20 10° NNE
Starlink H 4.3 17:11:39 10° NW 17:14:30 27° N 17:16:52 13° ENE
NOAA 12 4.2 17:11:03 10° SSE 17:16:17 87° WSW 17:21:35 10° NNW
Starlink F 4.2 17:13:53 10° NW 17:16:45 27° N 17:19:02 14° ENE
Cosmos 2341 Rocket 4.1 17:11:39 10° S 17:18:01 90° ESE 17:24:24 10° N
SMAP 4.0 17:14:24 10° S 17:18:56 52° W 17:23:30 10° NNW
Starlink G 4.2 17:16:06 10° NW 17:18:59 28° N 17:21:10 14° ENE
Starlink L 4.2 17:18:20 10° NW 17:21:13 28° N 17:23:18 15° ENE
Starlink A 4.2 17:20:35 10° NW 17:23:29 28° N 17:25:28 16° ENE
Starlink R 4.2 17:22:50 10° NW 17:25:44 29° N 17:27:37 17° ENE
Starlink K 4.2 17:25:04 10° NW 17:27:58 29° N 17:29:46 18° ENE
Cosmos 1953 Rocket 3.5 17:24:36 10° S 17:29:05 81° E 17:33:36 10° N
Cosmos 1943 4.1 17:24:23 10° N 17:29:13 28° NE 17:33:47 11° ESE
Starlink M 4.2 17:27:16 10° NW 17:30:12 29° N 17:31:54 18° ENE
Cosmos 1328 3.7 17:26:38 10° S 17:30:37 68° E 17:34:37 10° NNE
Cosmos 864 Rocket 4.4 17:24:44 10° S 17:30:45 64° E 17:36:51 10° NNE
Cosmos 1339 Rocket 4.4 17:24:41 10° N 17:30:49 82° E 17:36:59 10° S
Iridium 96 4.2 17:29:32 10° N 17:31:57 59° W 17:34:30 10° S
COSMO-SKYMED 1 2.6 17:27:54 10° NNE 17:32:13 61° E 17:36:30 10° S
CZ-4 R/B 1.4 17:28:42 10° SSE 17:32:43 58° ENE 17:36:51 10° N
Cosmos 1842 Rocket 4.0 17:28:45 10° N 17:32:58 38° ENE 17:37:09 10° SE
Cosmos 1758 Rocket 4.3 17:28:57 10° SSW 17:33:10 55° WNW 17:37:26 10° N
FengYun 1-2 T 4.3 17:30:20 10° SSE 17:35:59 88° ENE 17:41:42 10° NNW
Starlink AR 3.8 17:34:00 10° NW 17:36:20 26° NNE 17:37:04 22° NE
ATLAS CENTAUR R/B 1.2 17:34:47 10° NW 17:38:50 86° SW 17:42:35 10° SE
Cosmos 2218 Rocket 4.0 17:33:48 10° S 17:40:10 82° E 17:46:36 10° N
Cosmos 44 Rocket 4.0 17:37:06 10° S 17:41:24 34° ESE 17:43:54 20° ENE
CSL-04 Debris 4.2 17:36:34 10° SSE 17:41:50 59° ENE 17:47:10 10° N
SL-8 R/B 3.7 17:43:08 10° W 17:47:58 80° N 17:50:52 24° ENE
Shenzhou-11 Module 3.0 17:45:40 10° WSW 17:48:09 32° S 17:49:17 22° SE
Cosmos 1959 Rocket 4.5 17:42:50 10° S 17:49:00 88° W 17:55:09 10° N
Cosmos 2251 Rocket 3.8 17:45:13 10° NNW 17:50:31 71° WSW 17:55:49 10° SSE
USA 116 3.3 17:53:21 29° NE 17:54:36 48° E 17:57:38 10° S
H-2A R/B 3.2 17:55:38 22° NE 17:55:38 22° NE 17:59:17 10° NNE
Cosmos 1703 3.7 17:51:28 10° SSW 17:55:24 65° W 17:59:23 10° N
ATLAS 5 CENTAUR R/B 4.2 17:58:38 10° NNW 18:00:50 13° N 18:03:09 10° NNE
CSL-04 Rocket 3.6 17:55:28 10° SSE 18:00:59 82° ENE 18:06:35 10° NNW
Cosmos 1356 Rocket 3.5 17:57:26 10° NNW 18:01:31 78° W 18:05:37 10° S
Cosmos 1455 4.1 17:59:37 10° NNW 18:03:03 33° W 18:06:27 10° SSW
Cosmos 2221 2.4 17:59:53 10° N 18:04:08 59° ENE 18:08:23 10° SSE
Cosmos 2366 rocket 4.3 18:00:53 10° SSW 18:07:04 69° W 18:13:23 10° N
USA 267 3.7 18:03:50 18° NE 18:08:41 57° NNW 18:15:02 10° W
Cosmos 1076 Rocket 4.1 18:07:17 10° SSE 18:10:40 35° ESE 18:10:40 35° ESE
Starlink T 3.7 18:09:03 10° NW 18:11:56 39° N 18:11:56 39° N
Starlink N 3.7 18:11:04 10° NW 18:13:52 39° N 18:13:52 39° N
Starlink Q 3.7 18:13:19 10° NW 18:16:03 40° N 18:16:03 40° N
Starlink P 3.7 18:15:25 10° NW 18:18:04 39° N 18:18:04 39° N
ISS -2.8 18:15:57 10° WNW 18:19:09 37° N 18:19:20 36° N
Starlink U 3.8 18:17:30 10° NW 18:20:05 39° N 18:20:05 39° N
CZ-2D R/B 3.5 18:17:32 10° S 18:21:22 70° WSW 18:25:14 10° NNW
Cosmos 1371 Rocket 4.3 18:16:38 10° S 18:21:31 43° ESE 18:22:05 41° E
CENTAUR R/B 4.2 18:17:51 10° SSE 18:19:01 14° SE 18:19:01 14° SE
Cosmos 407 Rocket 3.4 18:16:37 10° NNW 18:21:53 61° ENE 18:24:47 26° SE
Cosmos 1190 Rocket 4.1 18:17:28 10° NNW 18:22:42 55° ENE 18:24:43 35° ESE
Starlink B 3.9 18:19:37 10° NW 18:22:08 39° NNW 18:22:08 39° NNW
Cosmos 1869 3.8 18:19:10 10° N 18:22:05 41° NNE 18:22:05 41° NNE
Cosmos 1939 Rocket 3.3 18:21:55 10° S 18:25:49 63° W 18:29:48 10° NNW
In-Cosmos 22 Rocket 4.5 18:20:47 10° SSE 18:26:04 42° E 18:26:19 42° E
NOSS 3-2 (A) 3.8 18:22:25 10° S 18:27:42 40° ESE 18:28:18 39° ESE
SL-16 R/B 4.2 18:25:52 10° NW 18:30:39 29° WSW 18:35:25 10° SSW
Starlink AS 4.5 18:28:05 10° NW 18:29:42 27° NW 18:29:42 27° NW
Starlink BA 4.5 18:28:17 10° NW 18:29:55 27° NW 18:29:55 27° NW
Starlink AU 4.5 18:28:30 10° NW 18:30:07 27° NW 18:30:07 27° NW
YAOGAN 1 3.9 18:30:57 10° SSW 18:35:01 40° W 18:39:08 10° NNW
Cosmos 676 Rocket 4.4 18:29:58 10° N 18:34:33 42° NE 18:34:33 42° NE
Cosmos 2227 4.1 18:30:50 10° SSW 18:36:34 78° ESE 18:39:03 35° NE
Starlink D 4.4 18:34:42 10° NW 18:36:42 32° NW 18:36:42 32° NW
SJ-11-01 4.1 18:39:25 57° SE 18:40:15 71° ENE 18:44:58 10° N
Ariane Rocket 2.9 18:38:49 10° SSE 18:43:53 89° ENE 18:49:01 10° NNW
Cosmos 1603 3.8 18:38:29 10° NNW 18:44:10 74° WSW 18:48:56 15° SSE
Cosmos 2297 Rocket 4.4 18:40:51 10° W 18:45:02 21° NW 18:49:13 10° N
ARGOS 3.7 18:46:23 41° NNE 18:46:23 41° NNE 18:50:19 10° N
Cosmos 1624 Rocket 4.0 18:43:17 10° S 18:48:11 63° SE 18:48:11 63° SE
Cosmos 2263 Rocket 2.0 18:44:41 10° SSW 18:50:14 77° ESE 18:51:06 63° NE
CZ-2C R/B 3.8 18:57:36 42° NNE 18:57:36 42° NNE 19:01:38 10° N
Atlas Centaur 2 4.3 18:55:31 10° S 18:56:05 10° S 18:56:41 10° S
ADEOS Rocket 3.4 18:49:44 10° NNE 18:56:33 85° WNW 19:04:03 10° SSW
Cosmos 2227 Rocket 4.5 18:54:42 10° W 18:58:35 19° NW 19:02:29 10° N
Cosmos 614 Rocket 4.4 18:54:32 10° NNW 18:59:40 60° WSW 19:02:55 22° S
Cosmos 2056 Rocket 3.6 18:59:11 10° SSW 19:03:46 68° S 19:03:46 68° S
USA 238 DEB 3.5 19:01:25 10° SSW 19:08:05 80° SE 19:08:59 68° ENE
USA 238 3.5 19:01:33 10° SSW 19:08:12 80° SE 19:09:02 69° ENE
Cosmos 1943 3.7 19:08:05 10° NW 19:13:38 57° WSW 19:15:42 36° S
Timation 1 Rocket 4.4 19:13:05 10° SW 19:19:03 74° WNW 19:19:33 70° NNW
Cosmos 44 Rocket 4.4 19:18:22 10° WSW 19:22:39 39° NW 19:22:39 39° NW
Cosmos 1140 Rocket 4.1 19:21:20 10° NNW 19:26:09 54° W 19:26:09 54° W
H-2A R/B 3.2 19:36:15 36° NW 19:36:15 36° NW 19:39:29 10° NNW
ATLAS 5 CENTAUR R/B 4.4 19:43:39 10° NNW 19:44:43 14° NNW 19:44:43 14° NNW
USA 267 4.2 19:51:11 37° N 19:51:11 37° N 19:56:52 10° WNW
